Tracking 19489 objects as of 22-Jan-2019
HD Live streaming from Space Station
objects crossing your sky now

SKYNET 1

Track SKYNET 1 now!
SKYNET 1 is classified as:


NORAD ID: 4250
Int'l Code: 1969-101A
Perigee: 35,706.0 km
Apogee: 35,883.1 km
Inclination: 6.2 °
Period: 1,436.1 minutes
Semi major axis: 42165 km
RCS: 1.2928 m2 (large)
Launch date: November 22, 1969
Source: United Kingdom (UK)
Launch site: AIR FORCE EASTERN TEST RANGE (AFETR)
aabbcc
Your satellite tracking list
Your tracking list is empty




NASA's NSSDC Master Catalog

Two Line Element Set (TLE):
1  4250U 69101A   19021.63824253 -.00000097 +00000-0 +00000-0 0  9991
2  4250 006.2207 299.6227 0020997 258.8055 048.3627 01.00269023107402
Source of the keplerian elements: AFSPC